This demonstration page uses our WeatherBlox Daily Observations layout. Learn more.

Left ArrowRight Arrow

41.86663, -103.66717

Hourly Observations for March 15, 2021

Temp ( °F °C ) Dew Point ( °F °C ) Humidity (%) Winds ( mph kmh ) Pressure ( in mb ) Visibility ( mi km ) Precip ( " mm )
12:01 am 00:01 Cloudy 30 -1.1 27 -2.8 88 88 NE 15 24 30.02 1017 10 16.0934 0 0
12:46 am 00:46 Cloudy 29 -1.7 27 -2.8 92 92 NNE 12 19 30.05 1018 10 16.0934 0 0
12:53 am 00:53 Cloudy 29 -1.7 27 -2.8 92 92 N 12 19 30.04 1017 10 16.0934 0 0
1:33 am 01:33 Cloudy 29 -1.7 27 -2.8 92 92 NNE 10 17 30.04 1017 10 16.0934 0 0
1:53 am 01:53 Cloudy 29 -1.7 26 -3.3 89 89 N 8 13 30.03 1017 10 16.0934 0 0
2:44 am 02:44 Cloudy 28 -2 27 -3 93 93 NNW 6 9 30.03 1017 10 16.0934 0 0
2:53 am 02:53 Cloudy 29 -1.7 26 -3.3 89 89 NW 5 7 30.02 1017 10 16.0934 0 0
3:53 am 03:53 Cloudy 29 -1.7 27 -2.8 92 92 WNW 7 11 30 1016 10 16.0934 0 0
4:22 am 04:22 Cloudy 29 -1.7 26 -3.3 89 89 WNW 8 13 29.99 1016 10 16.0934 0 0
4:53 am 04:53 Cloudy 29 -1.7 27 -2.8 92 92 NW 8 13 29.91 1013 10 16.0934 0 0
5:01 am 05:01 Cloudy 29 -1.7 27 -2.8 92 92 NW 7 11 29.98 1015 10 16.0934 0 0
5:53 am 05:53 Mostly Cloudy 27 -2.8 25 -3.9 92 92 NW 3 6 29.91 1013 10 16.0934 0 0
6:02 am 06:02 Mostly Clear 27 -2.8 25 -3.9 92 92 WNW 3 6 29.98 1015 10 16.0934 0 0
6:30 am 06:30 Mostly Cloudy 27 -2.8 26 -3.3 96 96 W 3 6 29.97 1015 10 16.0934 0 0
6:53 am 06:53 Cloudy 27 -2.8 26 -3.3 96 96 Calm 29.87 1011 10 16.0934 0 0
7:53 am 07:53 Cloudy 28 -2.2 26 -3.3 92 92 Calm 29.85 1011 10 16.0934 0 0
8:53 am 08:53 Cloudy 28 -2.2 26 -3.3 92 92 W 6 9 29.88 1012 10 16.0934 0 0
9:17 am 09:17 Cloudy 28 -2.2 25 -3.9 88 88 WNW 7 11 29.96 1014 10 16.0934 0 0
9:53 am 09:53 Mostly Cloudy 30 -1.1 25 -3.9 82 82 NNE 5 7 29.87 1011 10 16.0934 0 0
10:32 am 10:32 Mostly Cloudy 29 -1.7 25 -3.9 85 85 Calm 29.93 1013 10 16.0934 0 0
10:53 am 10:53 Cloudy 30 -1.1 25 -3.9 82 82 ESE 6 9 29.85 1011 10 16.0934 0 0
11:03 am 11:03 Cloudy 30 -1.1 26 -3.3 85 85 E 5 7 29.91 1013 10 16.0934 0 0
11:13 am 11:13 Cloudy 30 -1.1 26 -3.3 85 85 ESE 6 9 29.91 1013 9 14.48406 0 0
11:25 am 11:25 Cloudy with Light Snow 29 -1.7 27 -2.8 92 92 SE 6 9 29.91 1013 4 6.43736 0.001 0.001
11:38 am 11:38 Cloudy with Light Snow 29 -1.7 26 -3.3 89 89 SE 7 11 29.91 1013 1.75 2.816345 0.001 0.001
11:51 am 11:51 Cloudy with Light Snow 28 -2 27 -3 93 93 SE 8 13 29.91 1013 1.25 2.011675 0.001 0.001
11:53 am 11:53 Cloudy with Light Snow 29 -1.7 27 -2.8 92 92 SSE 8 13 29.84 1010 1.25 2.011675 0.001 0.001
12:08 pm 12:08 Cloudy with Light Snow 28 -2 27 -3 93 93 S 7 11 29.91 1013 1 1.60934 0 0
12:17 pm 12:17 Cloudy with Light Snow 29 -1.7 27 -2.8 92 92 S 7 11 29.9 1012 0.75 1.207005 0.01 0.254
12:37 pm 12:37 Cloudy with Snow 29 -1.7 27 -2.8 92 92 S 8 13 29.9 1012 0.5 0.80467 0.03 0.762
12:53 pm 12:53 Mostly Cloudy with Light Snow 28 -2.2 27 -2.8 96 96 S 9 15 29.83 1010 0.75 1.207005 0.04 1.016
1:17 pm 13:17 Cloudy with Snow 28 -2.2 27 -2.8 96 96 S 9 15 29.9 1012 0.5 0.80467 0.02 0.508
1:28 pm 13:28 Mostly Cloudy with Snow 28 -2 27 -3 93 93 SSE 8 13 29.88 1012 0.25 0.402335 0 0
1:44 pm 13:44 Mostly Cloudy with Snow 28 -2.2 27 -2.8 96 96 SSE 8 13 29.88 1012 0.5 0.80467 0.05 1.27
1:53 pm 13:53 Mostly Cloudy with Snow 28 -2.2 27 -2.8 96 96 SSE 7 11 29.8 1009 0.5 0.80467 0.06 1.524
2:53 pm 14:53 Mostly Cloudy with Snow 29 -1.7 28 -2.2 96 96 ESE 9 15 29.78 1009 0.5 0.80467 0.05 1.27
3:31 pm 15:31 Cloudy with Snow 30 -1.1 29 -1.7 96 96 SSE 8 13 29.83 1010 0.5 0.80467 0.03 0.762
3:40 pm 15:40 Mostly Cloudy with Snow 30 -1 30 -1 100 100 S 8 13 29.83 1010 0.25 0.402335 0 0
3:53 pm 15:53 Mostly Cloudy with Snow 31 -0.6 31 -0.6 100 100 SSE 7 11 29.76 1008 0.25 0.402335 0.06 1.524
4:21 pm 16:21 Cloudy with Snow 31 -0.6 31 -0.6 100 100 SSE 7 11 29.81 1009 0.5 0.80467 0.03 0.762
4:53 pm 16:53 Cloudy with Snow 31 -0.6 31 -0.6 100 100 SSE 7 11 29.75 1008 0.5 0.80467 0.05 1.27
5:46 pm 17:46 Cloudy with Snow 34 1 N/A N/A SW 14 22 29.79 1009 0.5 0.80467 0.05 1.27
5:53 pm 17:53 Cloudy with Snow 32 0 N/A N/A SW 16 26 29.76 1008 0.5 0.80467 0.06 1.524
6:21 pm 18:21 Cloudy with Light Snow 34 1 N/A N/A SW 14 22 29.78 1009 1.5 2.41401 0.02 0.508
6:26 pm 18:26 Cloudy with Light Snow 34 1 N/A N/A SW 16 26 29.78 1009 3 4.82802 0.02 0.508
6:40 pm 18:40 Cloudy with Light Snow 34 1 N/A N/A SW 18 30 29.78 1009 6 9.65604 0.02 0.508
6:53 pm 18:53 Cloudy with Light Snow 34 1 N/A N/A SSW 14 22 29.76 1008 7 11.26538 0.03 0.762
7:53 pm 19:53 Cloudy with Light Snow 34 1.1 33 0.6 97 97 W 8 13 29.78 1009 8 12.87472 0.001 0.001
8:53 pm 20:53 Cloudy with Light Snow 33 0.6 33 0.6 100 100 WNW 12 19 29.81 1010 5 8.0467 0.01 0.254
9:02 pm 21:02 Cloudy with Light Snow 33 0.6 33 0.6 100 100 WNW 14 22 29.85 1011 2.5 4.02335 0.001 0.001
9:27 pm 21:27 Cloudy with Light Snow 30 -1.1 30 -1.1 100 100 NNW 10 17 29.89 1012 4 6.43736 0.001 0.001
9:34 pm 21:34 Cloudy with Light Snow 30 -1.1 29 -1.7 96 96 NNW 10 17 29.9 1012 5 8.0467 0.001 0.001
9:53 pm 21:53 Cloudy 30 -1.1 28 -2.2 92 92 N 9 15 29.84 1011 8 12.87472 0.001 0.001
10:37 pm 22:37 Cloudy 29 -1.7 27 -2.8 92 92 NNW 10 17 29.93 1013 10 16.0934 0 0
10:49 pm 22:49 Cloudy with Light Snow 28 -2 28 -2 100 100 N 9 15 29.93 1014 7 11.26538 0.001 0.001
10:53 pm 22:53 Cloudy with Light Snow 29 -1.7 28 -2.2 96 96 N 8 13 29.86 1011 6 9.65604 0.001 0.001
11:35 pm 23:35 Cloudy 28 -2.2 27 -2.8 96 96 NNW 8 13 29.95 1014 10 16.0934 0.001 0.001
11:53 pm 23:53 Cloudy 27 -2.8 26 -3.3 96 96 NW 8 13 29.88 1012 10 16.0934 0.001 0.001

Powered by AerisWeather